Regional Weather Roundup
Issued by NWS Huntsville, AL

Home | Current Version | Previous Version | Text Only | Print | Product List | Glossary On
Versions: 1 2 3 4 5 6 7 8 9 10 11 12 13 14 15 16 17 18 19 20 21 22 23 24 25 26 27 28 29 30 31 32 33 34 35 36 37 38 39 40 41 42 43 44 45 46 47 48 49 50
475
ASUS44 KHUN 220110
RWRHUN

WEATHER ROUNDUP FOR THE TENNESSEE VALLEY
NATIONAL WEATHER SERVICE HUNTSVILLE AL
700 PM CST SAT JAN 21 2017

ALZ001>004-220200-
NORTHWEST ALABAMA

CITY           SKY/WX    TMP DP  RH WIND       PRES   REMARKS
SHOALS AIRPORT CLOUDY    59  51  75 SE3       29.63R
$$

ALZ005>007-016-220200-
NORTH CENTRAL ALABAMA

CITY           SKY/WX    TMP DP  RH WIND       PRES   REMARKS
DECATUR AP     CLOUDY    59  54  83 E5        29.63R
HUNTSVILLE AP  CLOUDY    60  53  77 E7        29.63R
MERIDIANVILLE  CLOUDY    59  50  72 CALM      29.63S
REDSTONE ARSN  CLOUDY    60  52  75 CALM      29.62S
VINEMONT AP    FAIR      57  52  82 CALM      29.66R
$$

ALZ008>010-220200-
NORTHEAST ALABAMA

CITY           SKY/WX    TMP DP  RH WIND       PRES   REMARKS
ALBERTVILLE    CLOUDY    57  57 100 SE5       29.64R
FORT PAYNE     CLOUDY    54  50  87 CALM      29.65F
SCOTTSBORO AP  CLOUDY    55  55 100 CALM      29.64F
SCOTTSBORO HCN   N/A     55 N/A N/A MISG        N/A
VALLEY HEAD      N/A     57 N/A N/A MISG        N/A
$$

TNZ076-096-097-220200-
SOUTHEASTERN MIDDLE TENNESSEE

CITY           SKY/WX    TMP DP  RH WIND       PRES   REMARKS
TULLAHOMA      CLEAR     57  50  77 SE3       29.64F
WINCHESTER     CLEAR     55  50  82 SE7       29.65F
$$

...SURROUNDING SITES...

CITY           SKY/WX    TMP DP  RH WIND       PRES   REMARKS
ATLANTA        MOCLDY    59  57  93 SW5       29.69R
ANNISTON       MOCLDY    57  55  93 CALM      29.67S
BIRMINGHAM     PTCLDY    61  56  83 S6        29.67R
CHATTANOOGA    CLOUDY    59  53  80 CALM      29.67R
CORINTH        FAIR      59  52  77 SE6       29.58S
DALTON         CLOUDY    59  55  88 CALM      29.68R
GADSDEN        CLOUDY    58  55  90 CALM      29.66R
GOLDEN TRNGL   CLEAR     63  54  72 SE9       29.54F
HALEYVILLE     FAIR      60  54  80 S5        29.66R
JACKSON TN     CLOUDY    64  52  64 CALM      29.57F
MEMPHIS        MOCLDY    64  52  64 SE7       29.54S
NASHVILLE      CLOUDY    61  49  64 CALM      29.64R
OXFORD MS      FAIR      61  54  77 SE5       29.58S
ROME           CLOUDY    58  55  90 CALM      29.66S
SAVANNAH       CLEAR     57  55  94 CALM      29.59F
TUPELO         CLEAR     61  53  75 E6        29.59S
TUSCALOOSA     MOCLDY    62  57  83 E5        29.62S
$$

...GULF COAST WEATHER...

CITY           SKY/WX    TMP DP  RH WIND       PRES   REMARKS
GULFPORT       CLOUDY    71  70  96 S14G23    29.53R THUNDER
PASCAGOULA     LGT RAIN  70  67  90 VRB6      29.55F FOG
MOBILE         TSTM      67  65  93 VRB5      29.57F FOG
GULF SHORES    CLOUDY    68  68 100 E9        29.58F
PENSACOLA      LGT RAIN  69  66  90 E10       29.59F
DESTIN         CLOUDY    72  70  93 VRB3      29.63
PANAMA CITY    CLEAR     70  69  95 S10       29.67F
APPALACHICOLA  CLOUDY    72  72 100 SW9       29.70F
$$





USA.gov is the U.S. government's official web portal to all federal, state and local government web resources and services.